When you browse on this site, cookies collect data to enhance your experience and personalize the content and advertising you see.
Visit our Privacy Policy to learn more. By continuing to use the site, you agree to this use of cookies and data.
  • En España
  • Lista de países
  • Para 7 días
  • Temperatura del agua
  • El tiempo en el mapa
  • Informadores
  • user-avatar
    Iniciar sesión

    Tiempo cada hora Badajoz

    Hoy, 31 Marzo, Martes

    Tiempo Temperatura Precipitaciones Viento Presión Humedad
    00:00 +7°C° 0 mm 5 mps 738 mmHg 93%
    01:00 +7°C° 2.2 mm 5 mps 737 mmHg 94%
    02:00 +6°C° 2.2 mm 5 mps 737 mmHg 95%
    03:00 +6°C° 2.2 mm 4 mps 736 mmHg 96%
    04:00 +6°C° 0.6 mm 4 mps 736 mmHg 96%
    05:00 +6°C° 0.6 mm 4 mps 736 mmHg 96%
    06:00 +5°C° 0 mm 3 mps 736 mmHg 95%
    07:00 +7°C° 0 mm 3 mps 736 mmHg 93%
    08:00 +9°C° 0 mm 3 mps 736 mmHg 91%
    09:00 +10°C° 0 mm 3 mps 736 mmHg 89%
    10:00 +12°C° 0.3 mm 2 mps 736 mmHg 86%
    11:00 +14°C° 0.3 mm 2 mps 736 mmHg 82%
    12:00 +15°C° 0 mm 2 mps 737 mmHg 77%
    13:00 +16°C° 1.4 mm 3 mps 736 mmHg 78%
    14:00 +16°C° 1.4 mm 3 mps 736 mmHg 78%
    15:00 +15°C° 1.4 mm 4 mps 736 mmHg 79%
    16:00 +14°C° 0.6 mm 4 mps 736 mmHg 80%
    17:00 +13°C° 0.6 mm 4 mps 737 mmHg 82%
    18:00 +12°C° 0.6 mm 4 mps 737 mmHg 83%
    19:00 +10°C° 0 mm 4 mps 738 mmHg 86%
    20:00 +8°C° 0 mm 4 mps 739 mmHg 88%
    21:00 +7°C° 0 mm 3 mps 740 mmHg 91%
    22:00 +5°C° 0 mm 3 mps 741 mmHg 92%
    23:00 +6°C° 0 mm 2 mps 741 mmHg 92%

    Mañana, 1 Abril, Miércoles

    Tiempo Temperatura Precipitaciones Viento Presión Humedad
    00:00 +5°C° 0 mm 2 mps 742 mmHg 93%
    01:00 +4°C° 0 mm 2 mps 742 mmHg 93%
    02:00 +5°C° 0 mm 1 mps 742 mmHg 93%
    03:00 +5°C° 0 mm 1 mps 742 mmHg 93%
    04:00 +5°C° 0 mm 1 mps 742 mmHg 93%
    05:00 +5°C° 0 mm 1 mps 742 mmHg 92%
    06:00 +3°C° 0 mm 2 mps 742 mmHg 92%
    07:00 +5°C° 0 mm 2 mps 742 mmHg 86%
    08:00 +7°C° 0 mm 3 mps 743 mmHg 79%
    09:00 +9°C° 0 mm 3 mps 743 mmHg 73%
    10:00 +10°C° 0.3 mm 3 mps 743 mmHg 72%
    11:00 +11°C° 0.3 mm 4 mps 743 mmHg 72%
    12:00 +12°C° 0.3 mm 4 mps 743 mmHg 71%
    13:00 +11°C° 0.8 mm 4 mps 743 mmHg 75%
    14:00 +11°C° 0.8 mm 3 mps 742 mmHg 79%
    15:00 +11°C° 0.8 mm 3 mps 742 mmHg 83%
    16:00 +10°C° 0.5 mm 3 mps 742 mmHg 84%
    17:00 +10°C° 0.5 mm 3 mps 742 mmHg 85%
    18:00 +10°C° 0.5 mm 2 mps 742 mmHg 86%
    19:00 +10°C° 1 mm 2 mps 742 mmHg 89%
    20:00 +9°C° 1 mm 2 mps 743 mmHg 92%
    21:00 +8°C° 1 mm 2 mps 743 mmHg 94%
    22:00 +8°C° 1.5 mm 3 mps 743 mmHg 94%
    23:00 +8°C° 1.5 mm 3 mps 743 mmHg 94%

    Pasado mañana, 2 Abril, Jueves

    Tiempo Temperatura Precipitaciones Viento Presión Humedad
    00:00 +7°C° 1.5 mm 4 mps 742 mmHg 94%
    01:00 +7°C° 1.3 mm 4 mps 742 mmHg 95%
    02:00 +7°C° 1.3 mm 4 mps 742 mmHg 95%
    03:00 +7°C° 1.3 mm 4 mps 741 mmHg 95%
    04:00 +7°C° 0.3 mm 4 mps 741 mmHg 95%
    05:00 +6°C° 0.3 mm 4 mps 741 mmHg 94%
    06:00 +6°C° 0.3 mm 4 mps 741 mmHg 94%
    07:00 +7°C° 0.2 mm 4 mps 742 mmHg 92%
    08:00 +7°C° 0.2 mm 4 mps 742 mmHg 91%
    09:00 +8°C° 0.2 mm 4 mps 742 mmHg 89%
    10:00 +10°C° 0.3 mm 4 mps 742 mmHg 86%
    11:00 +10°C° 0.3 mm 5 mps 742 mmHg 83%
    12:00 +10°C° 0.3 mm 5 mps 742 mmHg 80%
    13:00 +13°C° 0.1 mm 5 mps 742 mmHg 75%
    14:00 +14°C° 0.1 mm 4 mps 742 mmHg 69%
    15:00 +15°C° 0.1 mm 4 mps 742 mmHg 63%
    16:00 +16°C° 0 mm 3 mps 742 mmHg 66%
    17:00 +15°C° 0 mm 2 mps 742 mmHg 68%
    18:00 +15°C° 0 mm 1 mps 742 mmHg 71%
    19:00 +14°C° 0 mm 1 mps 743 mmHg 76%
    20:00 +12°C° 0 mm 2 mps 743 mmHg 80%
    21:00 +10°C° 0 mm 2 mps 744 mmHg 85%
    22:00 +9°C° 0 mm 2 mps 744 mmHg 87%
    23:00 +9°C° 0 mm 2 mps 744 mmHg 89%

    3 Abril, Viernes

    Tiempo Temperatura Precipitaciones Viento Presión Humedad
    00:00 +9°C° 0 mm 1 mps 744 mmHg 92%
    01:00 +9°C° 0 mm 1 mps 744 mmHg 92%
    02:00 +8°C° 0 mm 1 mps 744 mmHg 92%
    03:00 +8°C° 0 mm 1 mps 744 mmHg 93%
    04:00 +8°C° 0 mm 1 mps 744 mmHg 93%
    05:00 +7°C° 0 mm 1 mps 744 mmHg 94%
    06:00 +7°C° 0 mm 1 mps 744 mmHg 94%
    07:00 +8°C° 0 mm 2 mps 745 mmHg 88%
    08:00 +10°C° 0 mm 2 mps 745 mmHg 82%
    09:00 +13°C° 0 mm 2 mps 745 mmHg 77%
    10:00 +15°C° 0 mm 2 mps 745 mmHg 70%
    11:00 +17°C° 0 mm 2 mps 745 mmHg 63%
    12:00 +19°C° 0 mm 2 mps 745 mmHg 57%
    13:00 +19°C° 0 mm 2 mps 744 mmHg 54%
    14:00 +20°C° 0 mm 2 mps 744 mmHg 52%
    15:00 +20°C° 0 mm 2 mps 743 mmHg 50%
    16:00 +20°C° 0 mm 2 mps 743 mmHg 55%
    17:00 +19°C° 0 mm 2 mps 743 mmHg 61%
    18:00 +18°C° 0 mm 2 mps 743 mmHg 67%
    19:00 +16°C° 0 mm 2 mps 743 mmHg 69%
    20:00 +15°C° 0 mm 2 mps 743 mmHg 72%
    21:00 +13°C° 0 mm 2 mps 744 mmHg 74%
    22:00 +13°C° 0 mm 2 mps 744 mmHg 78%
    23:00 +12°C° 0 mm 2 mps 744 mmHg 81%

    4 Abril, Sábado

    Tiempo Temperatura Precipitaciones Viento Presión Humedad
    00:00 +12°C° 0 mm 1 mps 744 mmHg 84%
    01:00 +10°C° 0 mm 2 mps 744 mmHg 85%
    02:00 +10°C° 0 mm 2 mps 743 mmHg 86%
    03:00 +9°C° 0 mm 2 mps 743 mmHg 86%
    04:00 +9°C° 0 mm 2 mps 743 mmHg 85%
    05:00 +9°C° 0 mm 2 mps 743 mmHg 84%
    06:00 +8°C° 0 mm 2 mps 743 mmHg 83%
    07:00 +10°C° 0 mm 3 mps 743 mmHg 78%
    08:00 +12°C° 0 mm 4 mps 743 mmHg 73%
    09:00 +14°C° 0 mm 5 mps 743 mmHg 67%
    10:00 +15°C° 0 mm 5 mps 743 mmHg 64%
    11:00 +16°C° 0 mm 5 mps 743 mmHg 61%
    12:00 +19°C° 0 mm 5 mps 742 mmHg 58%
    13:00 +19°C° 0 mm 5 mps 742 mmHg 58%
    14:00 +19°C° 0 mm 5 mps 742 mmHg 58%
    15:00 +19°C° 0 mm 5 mps 741 mmHg 58%
    16:00 +19°C° 0.1 mm 4 mps 741 mmHg 64%
    17:00 +18°C° 0.1 mm 4 mps 741 mmHg 69%
    18:00 +17°C° 0.1 mm 3 mps 741 mmHg 75%
    19:00 +16°C° 0.1 mm 3 mps 742 mmHg 78%
    20:00 +14°C° 0.1 mm 3 mps 742 mmHg 81%
    21:00 +13°C° 0.1 mm 3 mps 742 mmHg 84%
    22:00 +13°C° 0 mm 3 mps 742 mmHg 84%
    23:00 +13°C° 0 mm 3 mps 742 mmHg 84%

    5 Abril, Domingo

    Tiempo Temperatura Precipitaciones Viento Presión Humedad
    00:00 +13°C° 0 mm 3 mps 743 mmHg 83%
    01:00 +13°C° 0 mm 3 mps 742 mmHg 83%
    02:00 +13°C° 0 mm 3 mps 742 mmHg 82%
    03:00 +13°C° 0 mm 3 mps 742 mmHg 82%
    04:00 +12°C° 0.5 mm 4 mps 742 mmHg 84%
    05:00 +12°C° 0.5 mm 4 mps 742 mmHg 85%
    06:00 +12°C° 0.5 mm 4 mps 742 mmHg 87%
    07:00 +13°C° 0.3 mm 5 mps 742 mmHg 87%
    08:00 +13°C° 0.3 mm 5 mps 742 mmHg 88%
    09:00 +14°C° 0.3 mm 5 mps 742 mmHg 88%
    10:00 +14°C° 0.2 mm 6 mps 742 mmHg 88%
    11:00 +15°C° 0.2 mm 6 mps 743 mmHg 87%
    12:00 +15°C° 0.2 mm 7 mps 743 mmHg 87%
    13:00 +16°C° 0.5 mm 7 mps 743 mmHg 85%
    14:00 +17°C° 0.5 mm 7 mps 742 mmHg 83%
    15:00 +18°C° 0.5 mm 7 mps 742 mmHg 82%
    16:00 +17°C° 0.5 mm 6 mps 742 mmHg 82%
    17:00 +17°C° 0.5 mm 5 mps 743 mmHg 83%
    18:00 +18°C° 0.5 mm 4 mps 743 mmHg 84%
    19:00 +17°C° 0.1 mm 3 mps 744 mmHg 87%
    20:00 +14°C° 0.1 mm 3 mps 744 mmHg 91%
    21:00 +13°C° 0.1 mm 3 mps 745 mmHg 94%
    22:00 +13°C° 0 mm 3 mps 745 mmHg 94%
    23:00 +14°C° 0 mm 2 mps 745 mmHg 95%
    Mostrar más